Location: Byhalia Creek
(34.8270°N, 89.8040°W)
Time: 08:56:13
(UTC+00:00)

Resurs 1-4 Rocket - Pass Details

Date: 22 April 2026
Orbit: 798 x 812 km, 98.8° (Epoch: 14 May)

Event Time Altitude Azimuth Distance (km) Brightness Sun altitude
Rises 07:50:07 0° 26° (NNE) 3,331 6.3 -35.9°
Reaches altitude 10° 07:52:46 10° 37° (NE) 2,394 5.3 -35.6°
Enters shadow 07:56:28 28° 80° (E) 1,480 3.7 -35.2°
